WZZ312 EDDG-EDLW

Flight info

Callsign WZZ312
Flight time 0h 19m
Altitude 5000
Route DOMEG2Z DOMEG DOMEG2A
Aircraft A20N/M-SDE2E3FGHIRWXY/LB1

Departure

Time 2026-04-14 16:47
Airport Münster Osnabrück Airport (EDDG)

Arrival

Time 2026-04-14 17:07
Airport Dortmund Airport (EDLW)
Time Latitude Longitude Altitude Speed Heading
2026-04-14 16:32 52.13133 7.69222 167 ft 0 kts 187°
2026-04-14 16:43 52.13132 7.69222 167 ft 0 kts 187°
2026-04-14 16:43 52.13131 7.69222 167 ft 0 kts 189°
2026-04-14 16:43 52.13129 7.69214 167 ft 1 kts 235°
2026-04-14 16:43 52.13142 7.69156 167 ft 12 kts 302°
2026-04-14 16:44 52.13161 7.69015 167 ft 14 kts 258°
2026-04-14 16:44 52.13221 7.68911 167 ft 15 kts 343°
2026-04-14 16:44 52.13328 7.68859 167 ft 17 kts 349°
2026-04-14 16:45 52.13436 7.69173 167 ft 19 kts 71°
2026-04-14 16:45 52.13482 7.69391 167 ft 22 kts 71°
2026-04-14 16:45 52.13533 7.69632 167 ft 21 kts 71°
2026-04-14 16:45 52.13571 7.69814 168 ft 16 kts 71°
2026-04-14 16:46 52.13619 7.69989 168 ft 18 kts 46°
2026-04-14 16:46 52.13739 7.70008 166 ft 20 kts 333°
2026-04-14 16:46 52.13762 7.69886 168 ft 0 kts 250°
2026-04-14 16:47 52.13760 7.69876 168 ft 11 kts 250°
2026-04-14 16:47 52.13646 7.69342 169 ft 86 kts 251°
2026-04-14 16:47 52.13381 7.68099 171 ft 143 kts 250°
2026-04-14 16:47 52.13059 7.66566 829 ft 139 kts 250°
2026-04-14 16:48 52.12722 7.65007 1511 ft 151 kts 251°
2026-04-14 16:48 52.12366 7.63363 2092 ft 159 kts 252°
2026-04-14 16:48 52.11985 7.61559 2552 ft 178 kts 252°
2026-04-14 16:48 52.11562 7.59546 3090 ft 198 kts 252°
2026-04-14 16:49 52.11089 7.57294 3635 ft 222 kts 252°
2026-04-14 16:49 52.10544 7.54825 4276 ft 243 kts 245°
2026-04-14 16:49 52.09451 7.52637 4811 ft 265 kts 217°
2026-04-14 16:49 52.07752 7.51374 4978 ft 270 kts 191°
2026-04-14 16:50 52.05907 7.51098 5002 ft 270 kts 181°
2026-04-14 16:50 52.04026 7.51094 4992 ft 270 kts 180°
2026-04-14 16:50 52.02149 7.51039 4999 ft 270 kts 182°
2026-04-14 16:50 52.00273 7.51015 4997 ft 270 kts 175°
2026-04-14 16:51 51.98416 7.51456 4996 ft 270 kts 169°
2026-04-14 16:51 51.96567 7.51987 4997 ft 270 kts 170°
2026-04-14 16:51 51.94718 7.52485 4998 ft 269 kts 170°
2026-04-14 16:51 51.92894 7.52964 4996 ft 269 kts 170°
2026-04-14 16:52 51.91042 7.53447 5000 ft 269 kts 170°
2026-04-14 16:52 51.89193 7.53930 4998 ft 269 kts 170°
2026-04-14 16:52 51.87347 7.54413 5000 ft 269 kts 170°
2026-04-14 16:52 51.85501 7.54897 5002 ft 269 kts 170°
2026-04-14 16:53 51.83649 7.55384 5000 ft 269 kts 170°
2026-04-14 16:53 51.81804 7.55868 4992 ft 269 kts 170°
2026-04-14 16:53 51.79958 7.56352 4996 ft 269 kts 170°
2026-04-14 16:53 51.78108 7.56838 5002 ft 269 kts 170°
2026-04-14 16:54 51.76266 7.57321 4998 ft 269 kts 170°
2026-04-14 16:54 51.74417 7.57806 4994 ft 268 kts 170°
2026-04-14 16:54 51.72578 7.58289 4998 ft 268 kts 170°
2026-04-14 16:54 51.70735 7.58771 4996 ft 268 kts 170°
2026-04-14 16:55 51.68891 7.59234 4996 ft 268 kts 170°
2026-04-14 16:55 51.67200 7.60254 5001 ft 267 kts 144°
2026-04-14 16:55 51.65973 7.62441 4994 ft 265 kts 116°
2026-04-14 16:55 51.65403 7.65248 4999 ft 264 kts 103°
2026-04-14 16:56 51.64955 7.68120 4992 ft 264 kts 103°
2026-04-14 16:56 51.64512 7.70980 4992 ft 264 kts 103°
2026-04-14 16:56 51.64351 7.73894 5003 ft 263 kts 84°
2026-04-14 16:56 51.64541 7.76829 5000 ft 263 kts 83°
2026-04-14 16:57 51.64644 7.79758 4991 ft 263 kts 96°
2026-04-14 16:57 51.64029 7.82510 4997 ft 264 kts 124°
2026-04-14 16:57 51.62689 7.84497 4903 ft 266 kts 153°
2026-04-14 16:57 51.60891 7.85011 4754 ft 267 kts 188°
2026-04-14 16:58 51.59220 7.83806 4612 ft 268 kts 223°
2026-04-14 16:58 51.58230 7.81316 4337 ft 267 kts 252°
2026-04-14 16:58 51.57661 7.78492 3866 ft 266 kts 251°
2026-04-14 16:58 51.56914 7.75759 3273 ft 266 kts 244°
2026-04-14 16:59 51.56043 7.73213 3059 ft 252 kts 240°
2026-04-14 16:59 51.55219 7.70854 3001 ft 232 kts 240°
2026-04-14 16:59 51.54471 7.68699 2995 ft 210 kts 241°
2026-04-14 16:59 51.53745 7.66787 3003 ft 195 kts 238°
2026-04-14 17:00 51.52924 7.65016 2993 ft 198 kts 233°
2026-04-14 17:00 51.52071 7.63286 2991 ft 197 kts 230°
2026-04-14 17:00 51.50928 7.62133 3004 ft 199 kts 191°
2026-04-14 17:00 51.49577 7.62308 3008 ft 197 kts 153°
2026-04-14 17:01 51.48580 7.63752 3000 ft 195 kts 114°
2026-04-14 17:01 51.48361 7.65819 2997 ft 189 kts 75°
2026-04-14 17:01 51.48822 7.67775 2992 ft 188 kts 62°
2026-04-14 17:01 51.49443 7.69618 3000 ft 188 kts 58°
2026-04-14 17:02 51.50064 7.71453 2999 ft 188 kts 62°
2026-04-14 17:02 51.50621 7.73359 2993 ft 188 kts 63°
2026-04-14 17:02 51.51170 7.75262 2989 ft 187 kts 63°
2026-04-14 17:02 51.51718 7.77165 2991 ft 188 kts 63°
2026-04-14 17:03 51.52267 7.79067 3002 ft 188 kts 63°
2026-04-14 17:03 51.52958 7.80821 2994 ft 185 kts 37°
2026-04-14 17:03 51.54105 7.81721 2991 ft 186 kts
2026-04-14 17:03 51.55367 7.81471 2996 ft 185 kts 332°
2026-04-14 17:04 51.56258 7.79977 2999 ft 191 kts 294°
2026-04-14 17:04 51.56673 7.77986 2993 ft 191 kts 283°
2026-04-14 17:04 51.56753 7.76553 3000 ft 192 kts 266°
2026-04-14 17:04 51.56418 7.74467 3005 ft 189 kts 248°
2026-04-14 17:05 51.55867 7.72712 2929 ft 167 kts 242°
2026-04-14 17:05 51.55084 7.70542 2253 ft 170 kts 240°
2026-04-14 17:05 51.54517 7.68926 1838 ft 161 kts 241°
2026-04-14 17:05 51.54157 7.67902 1617 ft 151 kts 240°
2026-04-14 17:06 51.53668 7.66465 1150 ft 144 kts 243°
2026-04-14 17:06 51.53184 7.65054 816 ft 144 kts 239°
2026-04-14 17:06 51.52691 7.63644 632 ft 145 kts 238°
2026-04-14 17:06 51.52189 7.62243 422 ft 143 kts 238°
2026-04-14 17:07 51.51790 7.61111 411 ft 76 kts 240°
2026-04-14 17:07 51.51653 7.60715 412 ft 27 kts 240°
2026-04-14 17:07 51.51553 7.60436 411 ft 30 kts 240°
2026-04-14 17:07 51.51442 7.60244 410 ft 17 kts 171°
2026-04-14 17:08 51.51389 7.60292 415 ft 0 kts 145°
2026-04-14 17:08 51.51387 7.60294 415 ft 2 kts 145°
2026-04-14 17:08 51.51362 7.60365 416 ft 14 kts 93°
2026-04-14 17:08 51.51415 7.60548 419 ft 20 kts 62°
2026-04-14 17:09 51.51486 7.60755 414 ft 23 kts 60°
2026-04-14 17:09 51.51546 7.60926 426 ft 13 kts 61°
2026-04-14 17:09 51.51588 7.61055 426 ft 12 kts 66°
2026-04-14 17:09 51.51628 7.61184 427 ft 14 kts 61°
2026-04-14 17:10 51.51681 7.61336 427 ft 15 kts 61°
2026-04-14 17:10 51.51680 7.61429 425 ft 6 kts 145°
2026-04-14 17:10 51.51650 7.61455 431 ft 0 kts 151°